CW7595 Weather Reports


Display with metric or nautical units.
time (UTC)temp
F
wind
direction
speed
MPH
gust
MPH
rain 1hr
in
rain 24hr
in
rain mn
in
humidity
%
barometer
mb
20260506204542 48 80 0.0 0.0 0.12 0.95 0.68 86 1003.8
20260506203041 48 342 0.0 0.0 0.14 0.94 0.67 85 1003.9
20260506201539 48 332 0.0 0.0 0.13 0.90 0.63 85 1004.5
20260506200039 48 101 0.0 0.0 0.12 0.86 0.59 85 1004.1
20260506194543 48 13 0.0 0.0 0.11 0.83 0.56 85 1004.3
20260506193038 48 323 0.0 1.0 0.10 0.80 0.53 85 1005.0
20260506191536 49 288 0.0 8.0 0.08 0.77 0.50 84 1004.9
20260506190034 49 285 0.0 0.0 0.06 0.74 0.47 84 1004.8
20260506184537 49 339 0.0 0.0 0.05 0.72 0.45 84 1005.0
20260506183036 50 86 0.0 0.0 0.04 0.70 0.43 84 1004.7
20260506181540 49 48 0.0 0.0 0.03 0.69 0.42 84 1005.0
20260506180033 49 297 0.0 0.0 0.05 0.68 0.41 84 1005.8
20260506174532 49 323 0.0 0.0 0.05 0.67 0.40 83 1005.8
20260506173038 49 17 0.0 0.0 0.04 0.66 0.39 83 1006.2
20260506171531 50 300 0.0 5.0 0.04 0.66 0.39 83 1006.6
20260506170030 50 132 0.0 0.0 0.01 0.63 0.36 83 1006.6
20260506164530 50 132 0.0 0.0 0.03 0.62 0.35 83 1006.5
20260506163030 50 132 0.0 0.0 0.04 0.62 0.35 82 1006.4
20260506161530 50 132 0.0 0.0 0.04 0.62 0.35 82 1006.4
20260506160037 50 195 0.0 0.0 0.04 0.62 0.35 82 1006.5
20260506154527 51 195 0.0 0.0 0.01 0.59 0.32 80 1007.7
20260506153026 51 195 0.0 0.0 0.00 0.57 0.31 79 1007.1
20260506151526 51 195 0.0 0.0 0.00 0.57 0.31 78 1007.1
20260506150025 51 195 0.0 0.0 0.00 0.57 0.31 76 1007.5
20260506144523 51 195 0.0 0.0 0.00 0.57 0.31 78 1007.5
20260506143023 51 195 0.0 0.0 0.00 0.57 0.31 80 1007.7
20260506141521 50 197 0.0 0.0 0.00 0.57 0.31 81 1007.9
20260506140021 50 198 0.0 0.0 0.00 0.57 0.31 83 1007.8
20260506134523 50 198 0.0 0.0 0.00 0.57 0.31 83 1007.8
20260506133020 50 194 0.0 0.0 0.00 0.57 0.31 84 1007.7
20260506131537 49 196 0.0 0.0 0.00 0.57 0.31 84 1007.8
20260506130032 49 203 0.0 0.0 0.00 0.57 0.31 84 1007.3
20260506124516 49 194 0.0 0.0 0.00 0.57 0.31 83 1007.1
20260506123016 49 195 0.0 0.0 0.00 0.57 0.31 83 1006.9
20260506121516 49 175 0.0 0.0 0.00 0.57 0.31 84 1006.8
20260506120019 49 187 0.0 0.0 0.01 0.57 0.31 84 1007.3
20260506114520 49 185 0.0 0.0 0.02 0.57 0.31 84 1007.1
20260506113015 49 185 0.0 0.0 0.03 0.57 0.31 84 1007.4
20260506111514 49 173 0.0 0.0 0.05 0.57 0.31 84 1007.3
20260506110014 48 194 0.0 0.0 0.05 0.56 0.30 84 1007.3
20260506104512 49 192 0.0 0.0 0.06 0.56 0.28 84 1007.5
20260506103016 49 193 0.0 0.0 0.06 0.55 0.28 84 1007.4
20260506101512 49 192 0.0 0.0 0.06 0.53 0.26 84 1007.6
20260506100011 49 191 0.0 0.0 0.06 0.52 0.25 84 1007.3
20260506094508 49 191 0.0 0.0 0.06 0.50 0.23 84 1007.4
20260506093008 49 181 0.0 0.0 0.06 0.49 0.22 84 1007.0
20260506091507 49 239 0.0 4.0 0.06 0.47 0.20 84 1007.1
20260506090003 49 247 1.0 6.0 0.06 0.46 0.19 83 1006.8
20260506084501 49 234 0.0 8.0 0.04 0.44 0.17 83 1006.6
20260506083109 50 219 1.0 7.0 0.08 0.43 0.16 82 1006.6
20260506081558 51 231 2.0 9.0 0.10 0.41 0.14 81 1006.6
20260506073043 56 227 0.0 6.0 0.07 0.34 0.07 84 1005.3
20260506071544 57 180 1.0 7.0 0.03 0.30 0.03 83 1004.8
20260506061533 58 202 0.0 10.0 0.00 0.27 0.00 81 1004.0
20260506044522 59 173 3.0 13.0 0.00 0.27 0.00 79 1003.5
20260506043019 59 193 3.0 11.0 0.00 0.27 0.00 79 1003.3
20260506041517 59 202 4.0 12.0 0.00 0.27 0.00 78 1003.0
20260506040014 59 180 4.0 9.0 0.00 0.27 0.27 78 1002.7
20260506034513 59 178 1.0 9.0 0.00 0.27 0.27 78 1002.5
20260506033013 59 166 1.0 9.0 0.00 0.27 0.27 79 1002.2
20260506031513 59 180 1.0 7.0 0.00 0.27 0.27 79 1002.2
20260506030020 59 175 4.0 9.0 0.00 0.27 0.27 79 1002.4
20260506024522 59 177 4.0 10.0 0.00 0.27 0.27 79 1002.1
20260506011549 60 186 2.0 10.0 0.02 0.27 0.27 79 1002.0
20260506010049 60 194 3.0 11.0 0.02 0.27 0.27 80 1001.6
20260506004549 59 173 7.0 14.0 0.02 0.26 0.26 80 1001.2
20260506003049 59 190 5.0 19.0 0.02 0.25 0.25 81 1001.4
20260506001551 59 171 5.0 18.0 0.03 0.25 0.25 81 1001.1
20260506000048 59 167 5.0 14.0 0.05 0.26 0.25 81 1000.9
20260505234550 59 174 8.0 15.0 0.06 0.25 0.24 81 1000.7
20260505233046 59 171 8.0 19.0 0.07 0.24 0.23 82 1000.8
20260505231558 58 171 6.0 14.0 0.09 0.23 0.22 82 1000.7
20260505230056 59 168 4.0 11.0 0.09 0.21 0.20 82 1000.9
20260505224547 59 174 2.0 9.0 0.07 0.19 0.18 81 1000.3
20260505223044 59 196 2.0 7.0 0.09 0.16 0.15 82 1000.7
20260505221543 59 220 0.0 3.0 0.13 0.14 0.13 81 1000.5
20260505220042 59 279 2.0 12.0 0.11 0.12 0.11 80 1000.3
20260505214543 60 261 8.0 20.0 0.10 0.11 0.10 78 1000.2
20260505213051 69 267 13.0 33.0 0.04 0.05 0.04 61 999.2
20260505211542 74 184 2.0 22.0 0.00 0.01 0.00 38 996.9
20260505210038 74 175 5.0 21.0 0.00 0.01 0.00 38 996.4